Regional Weather Roundup
Issued by NWS

Home | Current Version | Previous Version | Graphics & Text | Print | Product List | Glossary On
Versions: 1 2 3 4 5 6 7 8 9 10 11 12 13 14 15 16 17 18 19 20 21 22 23 24 25 26 27 28 29 30 31 32 33 34 35 36 37 38 39 40 41 42 43 44 45 46 47 48 49 50
643
ASUS45 KBOU 260210
RWRCO

WEATHER ROUNDUP FOR COLORADO
NATIONAL WEATHER SERVICE PUEBLO CO
800 PM MDT WED APR 25 2018

NOTE: "FAIR" INDICATES FEW OR NO CLOUDS BELOW 12000 FEET WITH NO
SIGNIFICANT WEATHER AND/OR OBSTRUCTIONS TO VISIBILITY.

COZ001>005-013-030-031-260300-
...NORTHWEST COLORADO...

CITY           SKY/WX    TMP DP  RH WIND       PRES   REMARKS
CRAIG          PTCLDY    53  25  33 W10       30.10F
HAYDEN         PTCLDY    56  19  23 NW8       30.12
MEEKER         PTCLDY    58  16  19 CALM      30.12F
RABBIT EARS PA NOT AVBL
STEAMBOAT SPGS FAIR      56  19  23 NW8       30.12S
WALDEN         FAIR      50   3  14 SW7       30.18S
$$

COZ006>008-011-260300-
...WEST CENTRAL VALLEYS...

CITY           SKY/WX    TMP DP  RH WIND       PRES   REMARKS
GRAND JUNCTION CLEAR     62   9  12 N8        30.06F
MONTROSE       CLEAR     60  11  14 NW6       30.12F
EAGLE          PTCLDY    58   2  10 W8        30.12S
RIFLE          CLEAR     62   9  12 W13       30.07S
DELTA          NOT AVBL
NUCLA          FAIR      59  -4   7 SW7       30.17S
$$

COZ017>023-064>068-260300-
...SOUTHWEST COLORADO...

CITY           SKY/WX    TMP DP  RH WIND       PRES   REMARKS
DURANGO        CLEAR     61  -1   8 W14       30.13R
CORTEZ         PTCLDY    63  -4   6 SW6       30.13S
PAGOSA SPRINGS FAIR      61  -3   7 SW5       30.18S
TELLURIDE      PTCLDY    51  -3  11 W8        30.30R
WOLF CREEK PAS CLEAR     36   9  32 SW17G26   30.42S
$$

COZ009-010-012-014-032>034-037-058>063-260300-
...CENTRAL COLORADO...

CITY           SKY/WX    TMP DP  RH WIND       PRES   REMARKS
ASPEN          CLEAR     55   9  16 NW8       30.16S
BUENA VISTA    FAIR      53   8  16 W12       30.15R
COPPER MTN     NOT AVBL
BERTHOUD PASS  FAIR      32  21  64 W29G38    30.35F WCI  18
COTTONWOOD PAS CLEAR     54 -15   5 W6        30.26R
GUNNISON       CLEAR     56   5  13 NW8       30.17R
KREMMLING      MOCLDY    61  14  16 N10       30.14R
LEADVILLE      CLEAR     44   9  23 NW5       30.25S
MONARCH PASS   CLEAR     37   1  22 W32G38    30.45S
SALIDA         FAIR      57   7  13 W5        30.19S
SUNLIGHT       CLEAR     36   9  32 W9G17     30.35S
WILKERSON PASS CLEAR     41  -8  12 NW8G17    30.33F
$$

COZ069>075-260300-
...SAN LUIS VALLEY/SANGRE DE CRISTO MOUNTAINS...

CITY           SKY/WX    TMP DP  RH WIND       PRES   REMARKS
ALAMOSA        CLEAR     53  12  19 SE8       30.12F
DEL NORTE      FAIR      52   3  14 N3        30.15F
LA VETA PASS   CLEAR     39  14  35 N13       30.38F
SAGUACHE       NOT AVBL
$$

COZ035-036-038>040-260300-
...NORTHERN COLORADO FRONT RANGE...

CITY           SKY/WX    TMP DP  RH WIND       PRES   REMARKS
DENVER INTL AP PTCLDY    51  26  37 SE9       30.03S
DMNS CITY PARK NOT AVBL
AURORA         PTCLDY    52  24  33 SE10      30.04F
FRONT RANGE AP CLEAR     55  27  33 E15       30.05S
ERIE MUNI ARPT FAIR      58  23  25 CALM      30.06F
BOULDER MUN AP FAIR      59  25  27 CALM      30.01F
CENTENNIAL     PTCLDY    57  22  25 SE5       30.05S
BROOMFIELD     PTCLDY    61  16  17 E6        30.04F
LOVELAND       PTCLDY    58  24  27 S7        30.02F
LONGMONT       FAIR      61  21  21 CALM      30.03F
$$

COZ041-046-047-076>085-087-088-260300-
...PIKES PEAK/PALMER DIVIDE AND SOUTHERN FOOTHILLS...

CITY           SKY/WX    TMP DP  RH WIND       PRES   REMARKS
COLO. SPRINGS  CLEAR     53  25  33 S13       30.11F
A. F. ACADEMY  CLEAR     52  22  31 S10       30.11S
SCHRIEVER AFB  NOT AVBL
CHEYENNE MTN   NOT AVBL
ELLICOTT         N/A    N/A N/A N/A S10       30.11R
FALCON         FAIR      48  23  37 S8        30.14F
FORT CARSON    CLEAR     52  26  36 S10       30.09S
LIMON          CLEAR     48  23  37 SE8       30.07F
MONUMENT HILL  CLEAR     45  28  53 S10       30.14R
CANON CITY     FAIR      57  28  33 NE9       30.08R
WALSENBURG     FAIR      52  28  40 SE6       30.11S
TRINIDAD       CLEAR     56  12  17 SE9       30.11F
$$

COZ042>045-048>051-090-091-260300-
...NORTHEAST COLORADO...

CITY           SKY/WX    TMP DP  RH WIND       PRES   REMARKS
GREELEY ARPT   PTCLDY    59  20  22 SE3       30.01F
AKRON          CLEAR     51  30  44 SE10      30.03F
BURLINGTON     CLEAR     44  34  67 S8        30.07F
WRAY           FAIR      52  32  46 S6        30.04S
YUMA           NOT AVBL
STERLING       NOT AVBL
HOLYOKE        FAIR      54  34  47 S10       30.03S
FORT MORGAN    FAIR      57  16  20 SE8       30.02S
$$

COZ086-089-092>099-260300-
...SOUTHEAST COLORADO...

CITY           SKY/WX    TMP DP  RH WIND       PRES   REMARKS
PUEBLO         CLEAR     59  27  29 SE9       30.07R
LA JUNTA       CLEAR     57  33  40 S9        30.06F
LAMAR          CLEAR     52  33  48 S10       30.06S
SPRINGFIELD      N/A     48  29  47 SE5       30.11F
$$





USA.gov is the U.S. government's official web portal to all federal, state and local government web resources and services.